This is the latest recevied weather packets stored in our database for station/object OE9FWV-10. If no packets are shown the sender has not sent any weather packets the latest 10 day(s).
| Time | Temp. | Humidity | Pressure | Rain* | Wind** | Luminosity | Snow |
|---|---|---|---|---|---|---|---|
| 1777631256 | 32.78° C | 18% | 1028.1 hPa | - | - | - | - |
| 1777630356 | 31.67° C | 19% | 1028.1 hPa | - | - | - | - |
| 1777629456 | 30.56° C | 21% | 1028.1 hPa | - | - | - | - |
| 1777627656 | 26.67° C | 25% | 1028.4 hPa | - | - | - | - |
| 1777626756 | 25° C | 26% | 1028.3 hPa | - | - | - | - |
| 1777625856 | 24.44° C | 26% | 1028.6 hPa | - | - | - | - |
| 1777624956 | 24.44° C | 26% | 1028.6 hPa | - | - | - | - |
| 1777624056 | 24.44° C | 27% | 1028.7 hPa | - | - | - | - |
| 1777623156 | 23.89° C | 27% | 1028.6 hPa | - | - | - | - |
| 1777622255 | 23.89° C | 27% | 1028.8 hPa | - | - | - | - |
| 1777620455 | 23.89° C | 27% | 1028.8 hPa | - | - | - | - |
| 1777619555 | 23.33° C | 27% | 1028.6 hPa | - | - | - | - |
| 1777618655 | 23.33° C | 27% | 1028.5 hPa | - | - | - | - |
| 1777617755 | 23.33° C | 28% | 1028.6 hPa | - | - | - | - |
| 1777616855 | 23.33° C | 28% | 1028.6 hPa | - | - | - | - |
| 1777615955 | 23.33° C | 28% | 1028.4 hPa | - | - | - | - |
| 1777615055 | 22.78° C | 28% | 1028.3 hPa | - | - | - | - |
| 1777614155 | 22.78° C | 28% | 1028.2 hPa | - | - | - | - |
| 1777613255 | 22.78° C | 28% | 1028.1 hPa | - | - | - | - |
| 1777612355 | 22.78° C | 28% | 1028.1 hPa | - | - | - | - |
| 1777611455 | 22.78° C | 29% | 1027.9 hPa | - | - | - | - |
| 1777610555 | 22.78° C | 28% | 1027.7 hPa | - | - | - | - |
| 1777609655 | 22.78° C | 29% | 1027.7 hPa | - | - | - | - |
| 1777608755 | 22.78° C | 29% | 1027.5 hPa | - | - | - | - |
| 1777607854 | 22.78° C | 29% | 1027.6 hPa | - | - | - | - |
* Rain since midnight (hover to see other rain measurements)
** Current wind speed in m/s (hover to see current wind gust speed)